Regional Weather Roundup
Issued by NWS Wakefield, VA

Home | Current Version | Previous Version | Text Only | Print | Product List | Glossary On
Versions: 1 2 3 4 5 6 7 8 9 10 11 12 13 14 15 16 17 18 19 20 21 22 23 24 25 26 27
000
ASUS41 KAKQ 011515
RWRAKQ

REGIONAL WEATHER ROUNDUP
NATIONAL WEATHER SERVICE WAKEFIELD VA
1100 AM EDT SUN MAY 01 2016

Note: "fair" indicates few or no clouds below 12,000 feet with no
significant weather and/or obstructions to visibility. * = Denotes
station may not report precipitation (e.g., rain,snow,etc.),
thunder or fog.

VAZ042-051-052>054-056-011600-
NORTHERN VIRGINIA

CITY           SKY/WX    TMP DP  RH WIND       PRES   REMARKS
WASH NATIONAL  RAIN      54  52  93 SE8       30.11F FOG
DULLES         LGT RAIN  53  52  96 S9        30.08F FOG
FORT BELVOIR   LGT RAIN  54  52  93 VRB3      30.11S
QUANTICO       LGT RAIN  55  53  93 SE7       30.11F FOG
FREDERICKSBRG* HVY RAIN  54  54 100 SE5       30.09F
STAFFORD*      RAIN      53  51  95 CALM      30.14F
WARRENTON      LGT RAIN  55  50  83 SE6       30.07F
CULPEPER*      LGT RAIN  55  54  99 S3        30.08F
MANASSAS*      CLOUDY    54  54 100 S9        30.09F FOG
LEESBURG*      DRIZZLE   54  54 100 S10       30.08F
WINCHESTER     CLOUDY    55  54  94 S8        30.03S
FRONT ROYAL*   CLOUDY    55  55 100 CALM      30.02F
LURAY*         LGT RAIN  55  55 100 W7        30.02F
$$

VAZ048-049-060>072-079>083-011600-
CENTRAL AND SOUTH CENTRAL VIRGINIA

CITY           SKY/WX    TMP DP  RH WIND       PRES   REMARKS
RICHMOND       CLOUDY    56  54  93 SE10      30.08F
CHESTERFIELD*  CLOUDY    55  45  67 S10       30.09F
PETERSBURG*    CLOUDY    58  58 100 SE5       30.09F
HANOVER        RAIN      55  52  89 SE3       30.10S FOG
TAPPAHANNOCK*  CLOUDY    56  55  97 SE5       30.11S
QUINTON*       CLOUDY    56  56  97 SE10G17   30.09F
CHARLOTTSVILLE CLOUDY    56  53  90 S8        30.07F
GORDONSVILLE*  CLOUDY    54  53  99 S5        30.08F
ORANGE*        LGT RAIN  54  54 100 SW5       30.10S
LOUISA*        RAIN      55  55 100 SE5       30.08F
BUMPASS*       CLOUDY    53  52  99 CALM      30.12R
FARMVILLE*     DRIZZLE   56  56 100 CALM      30.09F
CREWE*         CLOUDY    56  56 100 W3        30.09R
FORT PICKETT*  NOT AVBL
CHASE CITY*    CLOUDY    59  57  94 S3        30.09R
CLARKSVILLE*   CLOUDY    61  61 100 S5        30.08R
SOUTH HILL*    CLOUDY    58  58  99 S7        30.15R
LAWRENCEVILLE* CLOUDY    58  58 100 S5        30.08F
EMPORIA*       CLOUDY    59  55  88 SE6       30.10F
$$

VAZ088>098-011600-
SOUTHEAST VIRGINIA

CITY           SKY/WX    TMP DP  RH WIND       PRES   REMARKS
NORFOLK        CLOUDY    60  52  74 SE10      30.09F
VIRGINIA BEACH LGT RAIN  61  53  75 SE13      30.10F
NORFOLK NAVAL  LGT RAIN  61  54  77 SE10      30.11F
WEST POINT*    CLOUDY    58  55  90 SE8       30.11F
SALUDA*        CLOUDY    56  54  90 SE3       30.10F
NEWPORT NEWS   LGT RAIN  59  54  83 SE6       30.11F
LANGLEY AFB    LGT RAIN  59  54  83 SE5       30.10F
FORT EUSTIS    CLOUDY    59  55  84 SE7       30.09S
WILLIAMSBURG*  FAIR      61  55  82 SE9       30.11F
HR EXEC AP*    FAIR      61  55  82 S12       30.12F
FRANKLIN*      CLOUDY    60  56  89 SE7       30.11F
US460-WAKEFLD  CLOUDY    59  55  87 VRB5      30.10F
$$

VAZ020-022-025-037-045-011600-
WEST CENTRAL AND SOUTHWEST VIRGINIA

CITY           SKY/WX    TMP DP  RH WIND       PRES   REMARKS
STAUNTON*      PTSUNNY   58  58  97 SW6       30.06F
WAYNESBORO*    FAIR      58  55  91 MISG      30.04F
HOT SPRINGS VA FAIR      57  57 100 SW9       30.06F
LYNCHBURG      CLOUDY    55  54  96 NW3       30.11R
DANVILLE       HVY RAIN  59  59 100 NW8       30.11R FOG
SOUTH BOSTON*  CLOUDY    59  58  96 CALM      30.09R
MARTINSVILLE   RAIN      55  55  99 NW12      30.13R
ROANOKE        CLOUDY    58  56  93 VRB3      30.09S
BLACKSBURG     CLOUDY    61  59  93 SE5       30.10F
DUBLIN*        PTSUNNY   61  61 100 SE6       30.09F
MARION*        CLOUDY    62  57  84 CALM      30.12R
HILLSVILLE*    CLOUDY    60  59  97 S6        30.10R
RICHLANDS*     CLOUDY    63  59  89 S5        30.08S
WISE*          CLOUDY    66  63  88 SW6       30.08S
ABINGDON*      PTSUNNY   66  63  90 SE3       30.07S
$$

MDZ021>025-VAZ099-100-011600-
SOUTHERN MARYLAND AND THE DELMARVA PENINSULA

CITY           SKY/WX    TMP DP  RH WIND       PRES   REMARKS
PATUXENT RIVER CLOUDY    54  51  90 SE10      30.10F
BAY BRIDGE APT NOT AVBL
LEONARDTOWN    CLOUDY    52  50  93 SE3       30.11F
DOVER          LGT RAIN  51  51 100 E10       30.14F
GEORGETOWN     LGT RAIN  51  50  96 E5        30.16S FOG
EASTON         NOT AVBL
CAMBRIDGE      CLOUDY    52  50  93 E8        30.12F
SALISBURY      LGT RAIN  53  51  93 SE7       30.14S
OCEAN CITY     LGT RAIN  52  50  93 SE10      30.15S
WALLOPS ISLAND CLOUDY    54  51  90 E10       30.14F
ACCOMACK*      CLOUDY   N/A N/A N/A SE10      30.12F
$$

NCZ012>017-030>032-011600-
NORTH CENTRAL AND EASTERN NORTH CAROLINA

CITY           SKY/WX    TMP DP  RH WIND       PRES   REMARKS
ROANOKE RAPIDS CLOUDY    61  57  88 SE5       30.09F
RALEIGH        LGT RAIN  65  63  93 S13       30.11R FOG
ELIZABETH CITY CLOUDY    64  58  80 E8        30.12F
AHOSKIE*       PTSUNNY   61  57  86 S6        30.12R
EDENTON*       CLOUDY    67  63  87 SE5       30.13F
CURRITUCK*     LGT RAIN  62  56  80 E3        30.14F
KILL DEVIL HLS CLOUDY    70  61  72 CALM      30.12S
MANTEO         NOT AVBL
CAPE HATTERAS  PTSUNNY   71  62  73 S5        30.14S
TARBORO*       CLOUDY    65  60  82 S5        30.12S
GOLDSBORO      CLOUDY    70  70 100 VRB5      30.10S
WASHINGTON     CLOUDY    70  63  78 S6        30.12S
GREENVILLE     CLOUDY    70  63  78 S5        30.13S
NEW BERN       CLOUDY    75  65  70 S6        30.13S
WILMINGTON     CLOUDY    76  63  64 S12       30.12S
$$

VAZ048-011600-
ELSEWHERE

CITY           SKY/WX    TMP DP  RH WIND       PRES   REMARKS
HARRISBURG PA  CLOUDY    49  45  86 SE10      30.10F
BALTIMORE      LGT RAIN  52  50  93 SE8       30.11F
ANNAPOLIS      CLOUDY    52  51  97 SE14      30.11F
ANDREWS AFB    RAIN      54  52  94 S8        30.10F
PHILADELPHIA   LGT RAIN  48  44  86 E8        30.18F
HENDERSON NC   CLOUDY    61  61 100 S9        30.09R FOG
GREENSBORO     LGT RAIN  64  63  96 SW10      30.08R
ROCKY MOUNT    CLOUDY    65  61  87 S7        30.11S
$$

VAZ100-011600-
MARINE

STATION/POSITION TIME  TEMP    WIND        PRES    WAVE   SWELL
                       AIR SEA DIR/SP/G            HT/PER HT/PER
                 (UTC) (F)     (DEG/KT/KT) (MB)    (FT/S) (FT/S)
BRANDYWINE LGT   1400   51     120/ 13/ 17 1021.4F
CAPE MAY NJ      1400   50 57   80/  8/ 14 1021.1F
LEWES DE         1400   52 55  120/  7/ 10 1021.0F
15NM E FENWICK I 1450   51 51              1020.9F   4/ 8
OCEAN-CITY-INLET 1400   52 54  110/  7/ 10 1020.3F
WACHAPREAGUE VA  1400   55 59  110/  7/ 11 1020.5R
THOMAS POINT MD  1500   51 57  130/ 12/ 13 1021.0F
GOOSES REEF MD   1500   53 57  120/ 10/ 14 1020.6F   2/ 3
COVE POINT MD    1400   52     170/ 13/ 14 1020.7F
SOLOMONS ISLAND  1400   53 58  120/ 10/ 11   N/A
BISHOPS HEAD MD  1400   53 57  130/  9/ 11 1019.7R
PINEY POINT MD   1400          160/ 13/ 14   N/A
POTOMAC MD       1500   55 58  140/ 14/ 16 1018.3F   2/ 3
CAMBRIDGE MD     1400   51 60  110/  5/  6 1020.1R
LEWISETTA VA     1400   54 59  120/  4/  5 1019.8F
RAPPAHANNOCK LGT 1400          110/ 15/ 16 1020.4S
STINGRAY PT      1400   58 60  140/ 12/ 16 1020.2F   2/ 3
YORK RVR RNG VA  1400   58     140/ 14/ 16 1019.2F
YORKTOWN VA      1400   58 61  140/  7/ 10 1019.6F
JAMESTOWN VA     1500   59 65  130/ 12/ 14   N/A     1
DOMINION TERM VA 1400   59     130/  9/ 11 1019.8F
KIPTOPEKE VA     1400      59  110/ 12/ 15   N/A
CHES BAY BRIDGE  1400   57 60   90/  9/ 14 1019.7F
CAPE HENRY VA    1400   56     120/ 10/ 14   N/A
CHESAPEAKE LGHT  1400   55      90/ 13/ 14 1021.3R
WILLOUBY STN VA  1400   58     130/ 11/ 12 1020.7F
CAPE HENRY BUOY  1412      56                N/A     4/10   2/11
CAPE CHARLES BUO 1426      57                N/A     4/ 9   3/ 9
OFFSHORE WE BUOY 1421      54                N/A     4/ 9   5/ 9
64NM E OF VA BCH 1450   56 53   60/  4/  6 1020.6R   5/ 9   5/ 9
DUCK PIER NC     1400   59 66  120/  5/  6 1019.9R
44100 DUCK FRF   1424      54                N/A     4/ 9   2/11
44056 DUCK FRF   1411      59                N/A     4/10   2/11
OREGON INLET NC  1400   66 60  110/  6/  7 1020.3R
HATTERAS NC      1400   69 66  160/  5/  8 1020.3R
DIAMOND SHLS NC  1450   73 74  180/ 12/ 14 1020.3S   5/10   5/10
CAPE LOOKOUT NC  1500   69     160/  8/  C1F1C2F2C3F3C4F4C5F5C6F6C7F7C8M1C9!



USA.gov is the U.S. government's official web portal to all federal, state and local government web resources and services.